Location: Anumalkud?ru
(16.4847°N, 80.6636°E)
Time: 09:22:48
(UTC+00:00)

Cosmos 2184 Rocket - Pass Details

Date: 11 April 2026
Orbit: 957 x 1002 km, 82.9° (Epoch: 12 May)

Event Time Altitude Azimuth Distance (km) Brightness Sun altitude
Rises 13:19:42 0° 166° (SSE) 3,704 6.8 -7.4°
Reaches altitude 10° 13:22:22 10° 158° (SSE) 2,760 6.1 -8.0°
Maximum altitude 13:28:13 40° 91° (E) 1,433 4.4 -9.4°
Drops below altitude 10° 13:34:05 10° 24° (NNE) 2,768 6.3 -10.7°
Sets 13:36:45 0° 17° (NNE) 3,716 7.0 -11.4°
